Flag for Brazil Weather past 2 weeks in Londrina, Paraná, Brazil

Now
54 °F

Sunny.


Feels Like: 53 °F
Forecast: 55 / 72 °F
Wind: 3 mph from South

Location: Londrina Aeroporto

Current Time: Jul 6, 2015 at 7:19:54 AM

Latest Report: Jul 6, 2015 at 7:00 AM


Visibility: 10 mi

Pressure: 30.12 "Hg (27.98 "Hg at 615m altitude)

Humidity: 100%

Dew point: 54 °F

Location of LondrinaLocation

Historic Weather in Londrina — Graph

°F

Londrina temperature yesterday

Maximum temperature yesterday: 63 °F (at 2:00 PM)
Minimum temperature yesterday: 54 °F (at 1:00 AM)
Average temperature yesterday: 57 °F

Past Weeks' High & Low Weather Summary

 TemperatureHumidityPressure
High79 °F (Jun 22, 2:00 PM)100% (Jun 22, 5:00 AM)30.45 "Hg (Jun 22, 5:00 AM)
Low54 °F (Jun 28, 5:00 AM)48% (Jun 23, 4:00 PM)29.95 "Hg (Jul 4, 4:00 AM)
Average64 °F82%30.20 "Hg
* Reported Jun 21 6:00 AM — Jul 6 6:00 AM, Londrina, Weather by CustomWeather, © 2015

Note: Actual official high and low records may vary slightly from our data, if they occured in-between our weather recording intervals... More about our weather records

Advertising

Londrina weather history for previous 24 hours

 ConditionsComfort  
Time TempWeatherWind HumidityBarometerVisibility
6:00 AM
Mon, Jul 6
54 °FClear.3 mph94%30.09 "Hg10 mi
5:00 AM54 °FClear.5 mph94%30.09 "Hg10 mi
4:00 AM54 °FClear.5 mph94%30.09 "Hg10 mi
3:00 AM54 °FClear.5 mph94%30.12 "Hg10 mi
2:00 AM55 °FClear.6 mph88%30.12 "Hg10 mi
1:00 AM55 °FClear.3 mph88%30.12 "Hg10 mi
12:00 AM55 °FClear.6 mph88%30.12 "Hg10 mi
11:00 PM
Sun, Jul 5
55 °FClear.6 mph88%30.12 "Hg10 mi
10:00 PM55 °FClear.6 mph88%30.12 "Hg10 mi
9:00 PM55 °FClear.6 mph88%30.12 "Hg10 mi
8:00 PM57 °FClear.7 mph88%30.12 "Hg10 mi
7:00 PM57 °FPassing clouds.7 mph88%30.12 "HgN/A
6:00 PM59 °FPassing clouds.7 mph82%30.12 "HgN/A
5:00 PM61 °FPassing clouds.9 mph72%30.12 "HgN/A
4:00 PM63 °FScattered clouds.12 mph68%30.12 "HgN/A
3:00 PM63 °FSunny.10 mph68%30.12 "Hg10 mi
2:00 PM63 °FSunny.13 mph68%30.12 "Hg10 mi
1:00 PM61 °FPassing clouds.13 mph68%30.15 "HgN/A
12:00 PM59 °FScattered clouds.9 mph77%30.21 "HgN/A
11:00 AM59 °FScattered clouds.9 mph72%30.18 "HgN/A
10:00 AM57 °FPassing clouds.9 mph77%30.21 "HgN/A
9:00 AM55 °FPassing clouds.7 mph77%30.18 "HgN/A
8:00 AM54 °FSunny.10 mph82%30.15 "Hg10 mi
7:00 AM54 °FSunny.5 mph82%30.15 "Hg10 mi
Weather by CustomWeather, © 2015

See weather overviewHow to use our weather pages